Flag Weather past 2 weeks in Uelzen, Lower Saxony, Germany

Now
48 °F

Light rain. Partly sunny.


Feels Like: 43 °F
Forecast: 38 / 45 °F
Wind: 14 mph from West

Location: Fassberg

Current Time: Nov 24, 2014 at 9:08:28 AM

Latest Report: Nov 24, 2014 at 8:20 AM


Visibility: N/A

Pressure: 30.07 "Hg

Humidity: 94%

Dew point: 46 °F

Location of UelzenLocation

Historic Weather in Uelzen — Graph

°F

Uelzen temperature yesterday

Maximum temperature yesterday: 54 °F (at 2:20 PM)
Minimum temperature yesterday: 37 °F (at 7:20 AM)
Average temperature yesterday: 44 °F

Past Weeks' High & Low Weather Summary

 TemperatureHumidityPressure
High54 °F (Nov 11, 1:20 PM)100% (Nov 9, 8:20 AM)30.39 "Hg (Nov 9, 8:20 AM)
Low30 °F (Nov 11, 5:20 AM)62% (Nov 21, 12:20 PM)29.53 "Hg (Nov 16, 12:20 PM)
Average45 °F90%29.93 "Hg
* Reported Nov 9 7:20 AM — Nov 24 7:45 AM, Uelzen, Weather by CustomWeather, © 2014

Note: Actual official high and low records may vary slightly from our data, if they occured in-between our weather recording intervals... More about our weather records

Advertising

Uelzen weather history for previous 24 hours

 ConditionsComfort  
Time TempWeatherWind HumidityBarometerVisibility
7:45 AM
Nov 24
48 °FRain. Passing clouds.10 mph94%30.07 "Hg5 mi
7:20 AM48 °FDrizzle. Fog.8 mph94%30.04 "Hg3 mi
6:20 AM50 °FDrizzle. Fog.12 mph94%30.04 "Hg3 mi
5:20 AM50 °FPassing clouds.12 mph82%29.98 "Hg5 mi
4:20 AM50 °FPassing clouds.9 mph76%29.95 "HgN/A
3:20 AM50 °FPassing clouds.8 mph76%29.98 "HgN/A
2:20 AM50 °FPartly cloudy.9 mph71%29.98 "HgN/A
1:20 AM50 °FPassing clouds.8 mph71%29.98 "HgN/A
12:20 AM48 °FPassing clouds.10 mph76%29.98 "HgN/A
11:20 PM
Nov 23
48 °FPassing clouds.7 mph82%29.98 "HgN/A
10:20 PM46 °FPassing clouds.1 mph82%30.01 "HgN/A
9:20 PM46 °FPassing clouds.6 mph82%30.01 "HgN/A
8:20 PM46 °FPassing clouds.7 mph82%30.01 "HgN/A
7:20 PM46 °FPartly cloudy.7 mph82%30.04 "HgN/A
6:20 PM46 °FPassing clouds.9 mph87%30.04 "HgN/A
5:20 PM45 °FPassing clouds.7 mph87%30.04 "HgN/A
4:20 PM46 °FMostly cloudy.7 mph82%30.07 "HgN/A
3:20 PM52 °FPartly sunny.9 mph72%30.07 "HgN/A
2:20 PM54 °FBroken clouds.6 mph67%30.09 "HgN/A
1:20 PM50 °FBroken clouds.5 mph76%30.12 "HgN/A
12:20 PM50 °FBroken clouds.5 mph76%30.12 "HgN/A
11:20 AM46 °FPartly sunny.6 mph82%30.15 "HgN/A
10:20 AM45 °FPartly sunny.2 mph87%30.15 "Hg5 mi
9:46 AM43 °FPartly sunny.2 mph93%30.15 "Hg5 mi
9:20 AM41 °FPartly sunny.2 mph93%30.15 "Hg4 mi
Weather by CustomWeather, © 2014

See weather overviewHow to use our weather pages